TimePDT,TemperatureF,Dew PointF,Humidity,Sea Level PressureIn,VisibilityMPH,Wind Direction,Wind SpeedMPH,Gust SpeedMPH,PrecipitationIn,Events,Conditions,WindDirDegrees,DateUTC
12:15 AM,80.6,55.4,42,29.73,10.0,North,-9999.0,-,N/A,,Clear,0,2013-07-01 07:15:00
12:35 AM,78.8,55.4,44,29.73,10.0,North,5.8,-,N/A,,Clear,10,2013-07-01 07:35:00
12:55 AM,78.8,55.4,44,29.74,10.0,North,-9999.0,-,N/A,,Clear,0,2013-07-01 07:55:00
1:15 AM,75.2,57.2,53,29.73,10.0,North,4.6,-,N/A,,Clear,10,2013-07-01 08:15:00
1:35 AM,75.2,55.4,50,29.74,10.0,North,5.8,-,N/A,,Clear,10,2013-07-01 08:35:00
1:55 AM,75.2,55.4,50,29.74,10.0,North,6.9,-,N/A,,Clear,350,2013-07-01 08:55:00
2:15 AM,75.2,53.6,47,29.74,10.0,North,-9999.0,-,N/A,,Clear,0,2013-07-01 09:15:00
2:35 AM,75.2,53.6,47,29.74,10.0,North,-9999.0,-,N/A,,Clear,0,2013-07-01 09:35:00
2:55 AM,75.2,53.6,47,29.74,10.0,North,-9999.0,-,N/A,,Clear,0,2013-07-01 09:55:00
3:15 AM,75.2,53.6,47,29.74,10.0,North,-9999.0,-,N/A,,Clear,0,2013-07-01 10:15:00
3:35 AM,77.0,55.4,47,29.74,10.0,North,-9999.0,-,N/A,,Clear,0,2013-07-01 10:35:00
3:55 AM,75.2,55.4,50,29.75,10.0,North,-9999.0,-,N/A,,Clear,0,2013-07-01 10:55:00
4:15 AM,75.2,55.4,50,29.75,10.0,North,6.9,-,N/A,,Clear,360,2013-07-01 11:15:00
4:35 AM,73.4,55.4,53,29.76,10.0,North,-9999.0,-,N/A,,Clear,0,2013-07-01 11:35:00
4:55 AM,75.2,57.2,53,29.75,10.0,North,-9999.0,-,N/A,,Clear,0,2013-07-01 11:55:00
5:15 AM,75.2,55.4,50,29.76,10.0,North,-9999.0,-,N/A,,Clear,0,2013-07-01 12:15:00
5:35 AM,73.4,57.2,57,29.76,10.0,North,6.9,-,N/A,,Clear,350,2013-07-01 12:35:00
5:55 AM,73.4,55.4,53,29.76,10.0,North,8.1,-,N/A,,Clear,350,2013-07-01 12:55:00
6:15 AM,73.4,55.4,53,29.77,10.0,NNE,3.5,-,N/A,,Clear,20,2013-07-01 13:15:00
6:35 AM,73.4,55.4,53,29.77,10.0,North,-9999.0,-,N/A,,Clear,0,2013-07-01 13:35:00
6:45 AM,73.4,55.4,53,29.77,10.0,NNW,6.9,-,N/A,,Clear,330,2013-07-01 13:45:00
6:55 AM,75.2,55.4,50,29.77,10.0,North,5.8,-,N/A,,Clear,350,2013-07-01 13:55:00
7:45 AM,80.6,55.4,42,29.78,10.0,NNW,11.5,-,N/A,,Clear,330,2013-07-01 14:45:00
8:47 AM,86.0,57.2,37,29.79,10.0,NW,6.9,-,N/A,,Clear,310,2013-07-01 15:47:00
9:45 AM,91.4,55.4,29,29.80,10.0,NNW,8.1,-,N/A,,Clear,330,2013-07-01 16:45:00
10:45 AM,93.2,55.4,28,29.79,10.0,WNW,8.1,-,N/A,,Clear,300,2013-07-01 17:45:00
11:45 AM,98.6,53.6,22,29.80,10.0,NW,9.2,-,N/A,,Clear,320,2013-07-01 18:45:00
12:45 PM,100.4,55.4,22,29.79,10.0,NW,5.8,-,N/A,,Clear,320,2013-07-01 19:45:00
1:45 PM,104.0,55.4,20,29.79,10.0,NW,4.6,-,N/A,,Scattered Clouds,310,2013-07-01 20:45:00
2:45 PM,107.6,50.0,15,29.78,10.0,North,8.1,-,N/A,,Partly Cloudy,360,2013-07-01 21:45:00
3:45 PM,107.6,51.8,16,29.77,10.0,NNW,9.2,-,N/A,,Partly Cloudy,340,2013-07-01 22:45:00
4:45 PM,105.8,53.6,18,29.76,10.0,NNW,9.2,-,N/A,,Clear,340,2013-07-01 23:45:00
5:45 PM,105.8,46.4,14,29.74,10.0,NW,12.7,-,N/A,,Clear,320,2013-07-02 00:45:00
6:45 PM,100.4,55.4,22,29.74,10.0,NW,12.7,-,N/A,,Scattered Clouds,320,2013-07-02 01:45:00
7:45 PM,95.0,57.2,28,29.74,10.0,NW,12.7,-,N/A,,Scattered Clouds,320,2013-07-02 02:45:00
8:45 PM,89.6,55.4,31,29.74,10.0,NNW,6.9,-,N/A,,Clear,330,2013-07-02 03:45:00
9:15 PM,89.6,55.4,31,29.75,10.0,North,8.1,-,N/A,,Clear,360,2013-07-02 04:15:00
9:35 PM,86.0,57.2,37,29.76,10.0,North,6.9,-,N/A,,Clear,10,2013-07-02 04:35:00
9:55 PM,86.0,59.0,40,29.77,10.0,North,-9999.0,-,N/A,,Clear,0,2013-07-02 04:55:00
10:15 PM,84.2,60.8,45,29.78,10.0,NNE,6.9,-,N/A,,Clear,30,2013-07-02 05:15:00
10:35 PM,84.2,60.8,45,29.78,10.0,North,6.9,-,N/A,,Clear,350,2013-07-02 05:35:00
10:55 PM,84.2,60.8,45,29.78,10.0,North,5.8,-,N/A,,Clear,10,2013-07-02 05:55:00
11:15 PM,86.0,59.0,40,29.78,10.0,North,6.9,-,N/A,,Clear,350,2013-07-02 06:15:00
11:35 PM,86.0,59.0,40,29.77,10.0,North,8.1,-,N/A,,Clear,350,2013-07-02 06:35:00
11:55 PM,84.2,59.0,42,29.78,10.0,North,-9999.0,-,N/A,,Clear,0,2013-07-02 06:55:00